Salina, KS

8:40 PM CDT on March 25, 2017 (GMT -0500)
Salina Municipal

Weather History for KSLN - March, 2014

Change the Weather History Date:

Tuesday, March 18, 2014

  Actual Average Record
Temperature  
Mean Temperature 49 °F 46 °F  
Max Temperature 62 °F 58 °F 90 °F (1921)
Min Temperature 35 °F 35 °F -1 °F (1923)
Degree Days  
Heating Degree Days 16 19  
Month to date heating degree days 481 390  
Since 1 July heating degree days 4731 4231  
Cooling Degree Days 0 0  
Month to date cooling degree days 0 0  
Year to date cooling degree days 0 0  
Moisture  
Dew Point 29 °F    
Average Humidity 57    
Maximum Humidity 82    
Minimum Humidity 32    
Precipitation  
Precipitation T in 0.08 in 1.20 in (1984)
Month to date precipitation 0.05 1.25  
Year to date precipitation 1.86 3.05  
Sea Level Pressure  
Sea Level Pressure 29.52 in    
Wind  
Wind Speed 20 mph (West)    
Max Wind Speed 33 mph    
Max Gust Speed 39 mph    
Visibility 10 miles    
Events Rain , Snow    
T = Trace of Precipitation, MM = Missing Value Source: NWS Daily Summary

Daily Weather History Graph

Daily Weather History Graph

Search for Another Location

Airport or City:

Trip Planner

Search our weather history database for the weather conditions in past years. The results will help you decide how hot, cold, wet, or windy it might be!

Date:

Astronomy

Mar. 18, 2014 Rise Set
Actual Time 7:37 AM CDT 7:40 PM CDT
Civil Twilight 7:10 AM CDT 8:07 PM CDT
Nautical Twilight 6:39 AM CDT 8:38 PM CDT
Astronomical Twilight 6:08 AM CDT 9:09 PM CDT
Moon 9:57 PM CDT (3/18) 8:28 AM CDT (3/18)
Length of Visible Light 12h 56m
Length of Day
12h 03m
Waning Gibbous, 96% of the Moon is Illuminated
Mar 18
Waning Gibbous
Mar 23
Last Quarter
Mar 30
New
Apr 7
First Quarter
Apr 15
Full

Hourly Weather History & Observations

Time (CDT) Temp. Windchill Dew Point Humidity Pressure Visibility Wind Dir Wind Speed Gust Speed Precip Events Conditions
12:53 AM 50.0 °F - 27.0 °F 41% 29.41 in 10.0 mi SSE 17.3 mph - N/A   Clear
1:53 AM 48.9 °F - 27.0 °F 43% 29.37 in 10.0 mi SE 20.7 mph - 0.00 in   Clear
2:53 AM 48.0 °F - 27.0 °F 44% 29.36 in 10.0 mi SSE 18.4 mph - N/A   Clear
3:53 AM 46.9 °F - 27.0 °F 46% 29.35 in 10.0 mi SSE 15.0 mph - N/A   Clear
4:53 AM 46.0 °F 39.6 °F 27.0 °F 47% 29.35 in 10.0 mi SSE 15.0 mph - N/A   Clear
5:53 AM 44.1 °F 37.4 °F 27.0 °F 51% 29.32 in 10.0 mi SSE 13.8 mph - N/A   Clear
6:53 AM 44.1 °F 37.1 °F 27.0 °F 51% 29.33 in 10.0 mi SSE 15.0 mph - N/A   Clear
7:53 AM 43.0 °F 36.8 °F 27.0 °F 53% 29.35 in 10.0 mi South 11.5 mph - N/A   Clear
8:53 AM 46.0 °F 40.6 °F 28.9 °F 51% 29.35 in 10.0 mi South 11.5 mph - N/A   Clear
9:53 AM 50.0 °F - 30.0 °F 46% 29.36 in 10.0 mi South 13.8 mph - N/A   Clear
10:53 AM 51.1 °F - 30.0 °F 44% 29.37 in 10.0 mi SW 11.5 mph - N/A   Clear
11:53 AM 53.1 °F - 30.0 °F 41% 29.39 in 10.0 mi NW 10.4 mph - N/A   Clear
12:53 PM 57.0 °F - 30.0 °F 36% 29.42 in 10.0 mi NNW 19.6 mph - N/A   Clear
1:53 PM 57.9 °F - 30.0 °F 35% 29.43 in 10.0 mi NNW 17.3 mph 21.9 mph 0.00 in Rain Light Rain
2:53 PM 59.0 °F - 30.0 °F 33% 29.44 in 10.0 mi NNW 16.1 mph 24.2 mph 0.00 in   Clear
3:53 PM 61.0 °F - 30.0 °F 31% 29.45 in 10.0 mi NNW 18.4 mph 25.3 mph 0.00 in   Clear
4:53 PM 59.0 °F - 32.0 °F 36% 29.50 in 10.0 mi WNW 28.8 mph 35.7 mph N/A   Partly Cloudy
5:53 PM 54.0 °F - 30.9 °F 41% 29.56 in 10.0 mi West 28.8 mph 38.0 mph N/A   Clear
6:53 PM 46.0 °F 37.0 °F 30.0 °F 54% 29.63 in 10.0 mi WNW 27.6 mph - N/A   Partly Cloudy
7:53 PM 44.1 °F 34.4 °F 30.0 °F 58% 29.69 in 10.0 mi WNW 27.6 mph 35.7 mph N/A   Overcast
8:53 PM 39.9 °F 29.0 °F 28.9 °F 65% 29.73 in 10.0 mi NW 26.5 mph 33.4 mph 0.00 in Rain Light Rain
9:21 PM 39.9 °F 29.0 °F 28.0 °F 63% 29.75 in 10.0 mi NW 26.5 mph 36.8 mph 0.00 in Rain Light Rain
9:53 PM 37.9 °F 25.7 °F 28.0 °F 68% 29.79 in 10.0 mi NNW 29.9 mph 39.1 mph 0.00 in Rain Light Rain
10:47 PM 35.6 °F 24.5 °F 30.2 °F 81% 29.84 in 5.0 mi NW 20.7 mph - 0.00 in Snow Light Snow
10:53 PM 35.1 °F 23.3 °F 30.9 °F 85% 29.86 in 3.0 mi NW 23.0 mph 27.6 mph 0.00 in Snow Light Snow
11:42 PM 36.0 °F 23.9 °F 30.9 °F 82% 29.87 in 9.0 mi NNW 25.3 mph 36.8 mph 0.00 in Snow Light Snow
11:53 PM 36.0 °F 23.9 °F 30.9 °F 82% 29.89 in 9.0 mi NNW 25.3 mph - 0.00 in Snow Light Snow